GLOBALSTAR M001 1 25162U 98008A 25353.23647794 -.00000082 00000+0 11319-3 0 9999 2 25162 52.0007 154.6162 0000317 318.9139 212.8511 12.38223988266631 GLOBALSTAR M004 1 25163U 98008B 25353.06279845 -.00000071 00000+0 18006-3 0 9997 2 25163 51.9980 210.1356 0003228 0.9951 164.6077 12.63411068285051 GLOBALSTAR M002 1 25164U 98008C 25352.84408265 -.00000085 00000+0 -16507-3 0 9993 2 25164 51.9989 137.2048 0002591 115.4104 244.6984 11.61514887205522 GLOBALSTAR M003 1 25165U 98008D 25353.26065440 -.00000198 00000+0 -11538-2 0 9998 2 25165 51.9925 15.9225 0007800 306.5829 134.4698 12.12041428255668 GLOBALSTAR M014 1 25306U 98023A 25353.19489824 -.00000086 00000+0 -16202-3 0 9990 2 25306 51.9858 55.6586 0000468 357.9024 33.3539 11.65483574212743 GLOBALSTAR M006 1 25307U 98023B 25352.65905736 -.00000103 00000+0 -56054-3 0 9995 2 25307 51.9930 116.3814 0004070 91.4661 9.6927 11.58178711238206 GLOBALSTAR M015 1 25308U 98023C 25353.13665719 -.00000067 00000+0 13927-3 0 9994 2 25308 51.9799 222.1434 0013603 47.5269 123.1415 11.48862729215333 GLOBALSTAR M008 1 25309U 98023D 25353.25276441 -.00000067 00000+0 22879-3 0 9994 2 25309 51.9991 21.4970 0002741 199.4111 239.8046 12.36077060260730 GLOBALSTAR M023 1 25621U 99004A 25353.07976755 -.00000055 00000+0 27214-3 0 9991 2 25621 52.0082 210.4356 0009911 170.6078 349.9921 12.62510698239084 GLOBALSTAR M040 1 25622U 99004B 25353.12811436 -.00000061 00000+0 23948-3 0 9999 2 25622 51.9895 214.7152 0001998 76.9134 90.4103 12.62025297238607 GLOBALSTAR M036 1 25623U 99004C 25352.59150748 -.00000114 00000+0 -45394-3 0 9991 2 25623 51.9959 114.2613 0010868 47.9474 325.0269 11.86617936200876 GLOBALSTAR M038 1 25624U 99004D 25353.17613134 -.00000065 00000+0 24540-3 0 9994 2 25624 51.9974 258.8209 0002691 72.0827 79.1851 12.32537505225186 GLOBALSTAR M022 1 25649U 99012A 25352.60893817 -.00000076 00000+0 12799-3 0 9990 2 25649 52.0015 149.5545 0003169 155.9629 282.7005 12.02508284198565 GLOBALSTAR M041 1 25650U 99012B 25353.14606610 -.00000083 00000+0 28303-4 0 9992 2 25650 52.0039 35.1847 0000845 334.6915 25.3880 11.96681242200429 GLOBALSTAR M046 1 25651U 99012C 25353.30241042 -.00000191 00000+0 -11294-2 0 9995 2 25651 52.0055 91.0460 0001481 244.3662 153.2007 12.09415521206061 GLOBALSTAR M037 1 25652U 99012D 25353.12748641 -.00000084 00000+0 10850-3 0 9991 2 25652 52.0026 340.8390 0001706 236.5442 201.3602 12.62458537234639 GLOBALSTAR M045 1 25676U 99019A 25353.32220902 -.00000096 00000+0 -22167-4 0 9990 2 25676 51.9946 137.5898 0000960 120.2656 242.2674 12.27070690216123 GLOBALSTAR M019 1 25677U 99019B 25353.31643081 .00000056 00000+0 15230-2 0 9992 2 25677 51.9883 281.0032 0001736 0.4116 177.0082 12.13877809207626 GLOBALSTAR M044 1 25678U 99019C 25353.11833015 -.00000022 00000+0 85626-3 0 9990 2 25678 51.9965 256.0489 0006932 38.1510 103.4145 11.90262018193345 GLOBALSTAR M042 1 25679U 99019D 25352.91098689 -.00000062 00000+0 28469-3 0 9994 2 25679 52.0009 249.4710 0002999 339.5966 101.2356 12.22094426207845 GLOBALSTAR M025 1 25770U 99031A 25353.24160484 -.00000078 00000+0 -31996-3 0 9997 2 25770 51.9823 90.5768 0002948 101.7176 277.7142 11.22558930502498 GLOBALSTAR M049 1 25771U 99031B 25353.14513209 -.00000135 00000+0 -24310-2 0 9999 2 25771 51.9851 134.8582 0002252 347.7523 12.3218 11.12123267138001 GLOBALSTAR M047 1 25772U 99031C 25352.27043585 -.00000086 00000+0 -44658-3 0 9991 2 25772 51.9819 116.2223 0016169 215.2216 144.7522 11.31931785491959 GLOBALSTAR M052 1 25773U 99031D 25352.90039263 -.00000016 00000+0 16618-2 0 9996 2 25773 51.9851 241.4929 0003355 101.1466 342.2800 11.15062438499115 GLOBALSTAR M035 1 25851U 99037A 25353.19650457 -.00000050 00000+0 49284-3 0 9999 2 25851 51.9984 2.3749 0013600 281.6540 158.6151 11.04540221116702 GLOBALSTAR M032 1 25852U 99037B 25353.23132484 -.00000044 00000+0 72761-3 0 9999 2 25852 51.9914 174.7303 0013770 116.0240 244.1979 11.19075280155506 GLOBALSTAR M051 1 25853U 99037C 25353.05636118 -.00000107 00000+0 -86844-3 0 9991 2 25853 51.9822 314.9169 0000282 37.5029 322.5801 11.42202644153515 GLOBALSTAR M030 1 25854U 99037D 25352.57511364 -.00000081 00000+0 -13381-3 0 9990 2 25854 51.9874 110.4552 0003409 38.3597 321.7462 11.55110485171352 GLOBALSTAR M048 1 25872U 99041A 25353.18409942 -.00000040 00000+0 81938-3 0 9998 2 25872 51.9367 256.7962 0013315 140.5370 28.8465 11.33861072145967 GLOBALSTAR M026 1 25873U 99041B 25352.66161368 -.00000086 00000+0 -79677-3 0 9996 2 25873 51.9999 119.5783 0001828 179.3802 279.9493 11.06849549168917 GLOBALSTAR M043 1 25874U 99041C 25353.30716723 -.00000010 00000+0 17405-2 0 9996 2 25874 51.9432 11.5212 0013450 265.4636 107.1516 11.25698114143725 GLOBALSTAR M028 1 25875U 99041D 25352.29775172 -.00000050 00000+0 33091-3 0 9991 2 25875 51.9643 4.0739 0063532 111.3257 249.4401 12.50593109213217 GLOBALSTAR M024 1 25883U 99043A 25353.23769427 -.00000116 00000+0 -18078-2 0 9994 2 25883 52.0047 323.0828 0001807 34.5465 66.5871 11.10166061135415 GLOBALSTAR M027 1 25884U 99043B 25353.14128183 -.00000013 00000+0 18969-2 0 9997 2 25884 52.0237 46.5216 0020995 289.1906 70.6615 11.04372470161677 GLOBALSTAR M054 1 25885U 99043C 25352.65377623 -.00000079 00000+0 -20707-3 0 9995 2 25885 52.0109 143.9486 0005918 127.9123 316.8798 11.39224913140079 GLOBALSTAR M053 1 25886U 99043D 25353.32134851 -.00000094 00000+0 -72954-3 0 9993 2 25886 51.9979 99.7157 0003599 54.0927 317.7807 11.27668850140330 GLOBALSTAR M058 1 25907U 99049A 25353.27362035 -.00000103 00000+0 -25359-3 0 9992 2 25907 51.9971 334.9421 0001719 274.8529 85.2109 11.93206387563636 GLOBALSTAR M050 1 25908U 99049B 25353.23841329 -.00000079 00000+0 10576-3 0 9993 2 25908 52.0013 328.8864 0009430 40.4152 60.4453 12.07461681170543 GLOBALSTAR M033 1 25909U 99049C 25353.21928918 -.00000102 00000+0 -10074-3 0 9993 2 25909 51.9878 187.9916 0013107 287.1873 72.7539 12.20294799558336 GLOBALSTAR M055 1 25910U 99049D 25352.97085620 -.00000048 00000+0 39483-3 0 9994 2 25910 51.9985 190.4394 0007501 146.3960 213.7369 12.29438322191017 GLOBALSTAR M057 1 25943U 99058A 25352.54375199 -.00000062 00000+0 27919-3 0 9993 2 25943 51.9950 184.9973 0003309 48.7554 311.3580 12.24832158189525 GLOBALSTAR M059 1 25944U 99058B 25353.16583203 -.00000084 00000+0 32512-4 0 9990 2 25944 52.0034 66.7405 0000387 120.7391 256.3206 11.99988196596251 GLOBALSTAR M056 1 25945U 99058C 25353.17504068 -.00000095 00000+0 -92583-4 0 9991 2 25945 51.9978 63.9335 0001310 172.0234 203.9668 12.04781009184929 GLOBALSTAR M031 1 25946U 99058D 25351.65166691 -.00000043 00000+0 48267-3 0 9990 2 25946 51.9983 309.4344 0000939 181.2254 351.7896 12.16044933186865 GLOBALSTAR M039 1 25961U 99062A 25352.65399105 -.00000070 00000+0 19089-3 0 9991 2 25961 51.9858 66.8589 0002679 50.7616 309.3488 12.62339834203519 GLOBALSTAR M034 1 25962U 99062B 25353.23330363 -.00000042 00000+0 62325-3 0 9998 2 25962 51.9866 250.3736 0015120 32.9926 139.1457 11.79454142160226 GLOBALSTAR M029 1 25963U 99062C 25353.30622277 -.00000037 00000+0 60693-3 0 9995 2 25963 51.9825 314.2391 0002544 110.3090 58.7249 11.99904605191346 GLOBALSTAR M061 1 25964U 99062D 25353.28590881 -.00000104 00000+0 -38648-3 0 9999 2 25964 51.9804 76.7258 0005184 313.0474 81.1410 11.76777756142972 GLOBALSTAR M063 1 26081U 00008A 25353.21348394 -.00000129 00000+0 -67504-3 0 9995 2 26081 51.9984 344.2753 0004641 311.5477 132.0497 11.86178046179539 GLOBALSTAR M062 1 26082U 00008B 25353.17917288 -.00000122 00000+0 -16988-3 0 9998 2 26082 51.9858 271.7713 0007136 140.2141 3.3140 12.43478584519635 GLOBALSTAR M060 1 26083U 00008C 25353.18899998 -.00000028 00000+0 62815-3 0 9991 2 26083 52.0017 257.9259 0003481 124.6947 29.5111 12.17671483174904 GLOBALSTAR M064 1 26084U 00008D 25353.16206337 -.00000094 00000+0 -14983-3 0 9996 2 26084 52.0039 81.0576 0001829 78.3969 281.7069 11.88539249189090 GLOBALSTAR M065 1 31571U 07020A 25351.59775860 -.00000114 00000+0 -59491-4 0 9998 2 31571 51.9915 28.0181 0009699 356.5964 173.4742 12.62015524856566 GLOBALSTAR M069 1 31573U 07020C 25353.12307042 -.00000053 00000+0 36327-3 0 9997 2 31573 52.0049 41.7761 0002241 137.2987 246.5976 12.23465071856765 GLOBALSTAR M072 1 31574U 07020D 25352.97379920 -.00000044 00000+0 55382-3 0 9996 2 31574 51.9907 220.0240 0001309 17.3194 89.9758 11.91654521853491 GLOBALSTAR M071 1 31576U 07020F 25352.75853654 -.00000096 00000+0 -46409-4 0 9994 2 31576 52.0071 73.6287 0001571 125.1249 49.1554 12.18262643517433 GLOBALSTAR M067 1 32263U 07048A 25353.08527777 -.00000063 00000+0 25774-3 0 9993 2 32263 51.9702 214.9000 0001967 46.8305 112.2282 12.40682886832430 GLOBALSTAR M070 1 32264U 07048B 25353.28178034 -.00000088 00000+0 88678-4 0 9994 2 32264 51.9760 284.6256 0000499 62.8383 101.7718 12.62327460837042 GLOBALSTAR M066 1 32265U 07048C 25353.07849440 -.00000085 00000+0 78406-4 0 9993 2 32265 51.9573 214.9532 0005667 35.0769 130.4083 12.30383435838055 GLOBALSTAR M068 1 32266U 07048D 25353.27030794 -.00000100 00000+0 24547-4 0 9995 2 32266 51.9884 98.0539 0001612 154.6348 223.2775 12.62835554840945 GLOBALSTAR M079 1 37188U 10054A 25352.82524354 -.00000090 00000+0 76539-4 0 9990 2 37188 52.0057 297.7193 0000694 28.4399 352.9561 12.62269343699777 GLOBALSTAR M074 1 37189U 10054B 25353.16675942 -.00000097 00000+0 35397-4 0 9993 2 37189 52.0031 295.9737 0000761 56.2862 317.3559 12.62264132700421 GLOBALSTAR M076 1 37190U 10054C 25353.30582794 -.00000094 00000+0 54388-4 0 9991 2 37190 52.0043 295.7393 0000855 45.7517 119.0864 12.62268213700156 GLOBALSTAR M077 1 37191U 10054D 25353.15783146 -.00000090 00000+0 -22185-3 0 9995 2 37191 51.9983 276.5900 0001228 33.4453 105.4834 11.68176507700107 GLOBALSTAR M075 1 37192U 10054E 25351.73634080 -.00000091 00000+0 72174-4 0 9994 2 37192 51.9972 342.6695 0000324 70.0279 101.0008 12.62270606699024 GLOBALSTAR M073 1 37193U 10054F 25353.15779612 -.00000062 00000+0 23231-3 0 9991 2 37193 52.0056 252.3061 0000966 51.8322 99.4110 12.62268112701197 GLOBALSTAR M083 1 37739U 11033A 25353.01118199 -.00000071 00000+0 18044-3 0 9993 2 37739 51.9835 201.2266 0000984 70.9600 75.6857 12.62265837670197 GLOBALSTAR M088 1 37740U 11033B 25353.27254745 -.00000126 00000+0 -12191-3 0 9990 2 37740 52.0211 106.4202 0000904 119.6103 254.6190 12.62271007665779 GLOBALSTAR M091 1 37741U 11033C 25352.68399147 -.00000091 00000+0 73821-4 0 9999 2 37741 52.0006 71.4450 0000592 135.5764 22.0681 12.62268302666486 GLOBALSTAR M085 1 37742U 11033D 25353.11224205 -.00000095 00000+0 47578-4 0 9995 2 37742 52.0145 21.2756 0000138 159.5095 205.8191 12.62267368667054 GLOBALSTAR M081 1 37743U 11033E 25351.59018587 -.00000087 00000+0 92331-4 0 9998 2 37743 51.9980 28.5496 0000222 94.7932 71.3857 12.62270971667009 GLOBALSTAR M089 1 37744U 11033F 25353.25898450 -.00000092 00000+0 65428-4 0 9992 2 37744 51.9954 337.6624 0000624 70.8838 302.6694 12.62262469668063 GLOBALSTAR M084 1 38040U 11080A 25353.30710549 -.00000078 00000+0 14300-3 0 9998 2 38040 51.9983 204.9031 0001350 79.4554 91.8850 12.62266727646046 GLOBALSTAR M080 1 38041U 11080B 25353.03671237 -.00000066 00000+0 20936-3 0 9998 2 38041 52.0033 207.3821 0000719 100.4737 51.4945 12.62265021646138 GLOBALSTAR M082 1 38042U 11080C 25352.89691368 -.00000098 00000+0 30442-4 0 9998 2 38042 52.0050 163.2884 0000834 108.8430 57.2075 12.62266389646829 GLOBALSTAR M092 1 38043U 11080D 25353.18698867 -.00000076 00000+0 15592-3 0 9997 2 38043 52.0079 252.7939 0000859 66.4657 97.9974 12.62268464645311 GLOBALSTAR M090 1 38044U 11080E 25352.67063344 -.00000110 00000+0 -34277-4 0 9999 2 38044 52.0096 157.8751 0000940 91.2297 4.9669 12.62265499646916 GLOBALSTAR M086 1 38045U 11080F 25353.18636036 -.00000097 00000+0 37019-4 0 9991 2 38045 51.9875 156.5284 0001461 48.2551 122.6592 12.62281367646927 GLOBALSTAR M097 1 39072U 13005A 25353.17695861 -.00000115 00000+0 -61946-4 0 9999 2 39072 52.0060 71.3017 0000491 111.5674 248.5245 12.62267687594177 GLOBALSTAR M093 1 39073U 13005B 25353.15085737 -.00000103 00000+0 41657-5 0 9997 2 39073 52.0116 64.6606 0000222 106.4207 253.6685 12.62271105594126 GLOBALSTAR M094 1 39074U 13005C 25353.15073020 -.00000106 00000+0 -15101-4 0 9998 2 39074 51.9980 338.9578 0000329 19.0507 341.0372 12.62265388595738 GLOBALSTAR M096 1 39075U 13005D 25353.24295531 -.00000095 00000+0 49090-4 0 9992 2 39075 52.0090 27.3343 0000106 136.3556 223.7319 12.62269445594668 GLOBALSTAR M078 1 39076U 13005E 25352.58348222 -.00000122 00000+0 -10432-3 0 9994 2 39076 51.9867 113.6028 0000857 175.5904 184.4971 12.62272493593206 GLOBALSTAR M095 1 39077U 13005F 25352.68892667 -.00000126 00000+0 -12511-3 0 9997 2 39077 52.0073 110.6290 0000518 135.1198 224.9711 12.62267247593075 GLOBALSTAR M087 1 52888U 22064A 25352.86034889 -.00000068 00000+0 19866-3 0 9995 2 52888 51.9991 251.4501 0000734 51.5443 308.5489 12.62261591168367